User: anonymous   Login
Location: Goheenville
(40.9070°N, 79.3720°W)
Time: 04:44:59
(UTC-04:00)
Language:

NOAA 11 - Orbit

View from above orbital plane
View from above orbital plane
View from above satellite
View from above satellite

Ground track
Ground track

The orbit data is extracted from the following two-line orbital elements,

1 19531U 88089A   16240.35858081 -.00000022  00000-0  10267-4 0  9998
2 19531  98.5959 304.1902 0011695 156.2617 203.9099 14.15192386441196
Epoch (UTC): 27 August 2016 08:36:21
Eccentricity: 0.0011695
inclination: 98.5959°
perigee height: 833 km
apogee height: 850 km
right ascension of ascending node: 304.1902°
argument of perigee: 156.2617°
revolutions per day: 14.15192386
mean anomaly at epoch: 203.9099°
orbit number at epoch: 44119

The dashed part of the orbit path shows where the satellite is in the earth's shadow,  

DLR